TimeMDT,TemperatureF,Dew PointF,Humidity,Sea Level PressureIn,VisibilityMPH,Wind Direction,Wind SpeedMPH,Gust SpeedMPH,PrecipitationIn,Events,Conditions,WindDirDegrees,DateUTC
12:14 AM,59.7,46.4,61,30.22,10.0,South,3.5,-,N/A,,Clear,190,2013-08-16 06:14:00
12:34 AM,60.4,46.4,60,30.21,10.0,Calm,Calm,-,N/A,,Clear,0,2013-08-16 06:34:00
12:54 AM,61.0,46.4,59,30.21,10.0,South,3.5,-,N/A,,Clear,170,2013-08-16 06:54:00
1:14 AM,61.2,45.9,57,30.20,10.0,Calm,Calm,-,N/A,,Clear,0,2013-08-16 07:14:00
1:34 AM,59.4,45.3,60,30.20,10.0,Calm,Calm,-,N/A,,Clear,0,2013-08-16 07:34:00
1:54 AM,57.4,47.1,69,30.20,10.0,Calm,Calm,-,N/A,,Clear,0,2013-08-16 07:54:00
2:14 AM,56.5,46.0,68,30.19,10.0,Calm,Calm,-,N/A,,Clear,0,2013-08-16 08:14:00
2:34 AM,56.1,45.9,68,30.18,10.0,Calm,Calm,-,N/A,,Clear,0,2013-08-16 08:34:00
2:54 AM,55.0,45.5,70,30.18,10.0,Calm,Calm,-,N/A,,Clear,0,2013-08-16 08:54:00
3:14 AM,54.3,45.7,73,30.18,10.0,Calm,Calm,-,N/A,,Clear,0,2013-08-16 09:14:00
3:34 AM,53.8,45.3,73,30.18,10.0,Calm,Calm,-,N/A,,Clear,0,2013-08-16 09:34:00
3:54 AM,54.5,45.1,71,30.18,10.0,Calm,Calm,-,N/A,,Clear,0,2013-08-16 09:54:00
4:14 AM,52.5,45.5,77,30.18,10.0,South,3.5,-,N/A,,Clear,190,2013-08-16 10:14:00
4:34 AM,53.1,45.9,77,30.18,10.0,Calm,Calm,-,N/A,,Clear,0,2013-08-16 10:34:00
4:54 AM,52.2,45.5,78,30.18,10.0,Calm,Calm,-,N/A,,Clear,0,2013-08-16 10:54:00
5:14 AM,52.5,45.7,78,30.19,10.0,Calm,Calm,-,N/A,,Clear,0,2013-08-16 11:14:00
5:34 AM,51.8,45.5,79,30.19,10.0,Calm,Calm,-,N/A,,Clear,0,2013-08-16 11:34:00
5:54 AM,50.9,45.5,82,30.19,10.0,Calm,Calm,-,N/A,,Clear,0,2013-08-16 11:54:00
6:14 AM,50.5,45.1,82,30.20,10.0,Calm,Calm,-,N/A,,Clear,0,2013-08-16 12:14:00
6:34 AM,51.3,46.0,82,30.20,10.0,SSW,3.5,-,N/A,,Clear,210,2013-08-16 12:34:00
6:54 AM,52.7,46.6,80,30.21,10.0,SW,4.6,-,N/A,,Clear,220,2013-08-16 12:54:00
7:14 AM,54.5,47.8,78,30.21,10.0,Calm,Calm,-,N/A,,Clear,0,2013-08-16 13:14:00
7:34 AM,57.4,49.3,74,30.21,10.0,Calm,Calm,-,N/A,,Clear,0,2013-08-16 13:34:00
7:54 AM,60.8,49.6,67,30.21,10.0,Calm,Calm,-,N/A,,Clear,0,2013-08-16 13:54:00
8:14 AM,63.3,49.6,61,30.21,10.0,SW,3.5,-,N/A,,Clear,220,2013-08-16 14:14:00
8:34 AM,66.4,46.8,49,30.22,10.0,Calm,Calm,-,N/A,,Clear,0,2013-08-16 14:34:00
8:54 AM,68.9,43.5,40,30.22,10.0,Calm,Calm,-,N/A,,Clear,0,2013-08-16 14:54:00
9:14 AM,71.1,43.0,36,30.21,10.0,Calm,Calm,-,N/A,,Clear,0,2013-08-16 15:14:00
9:34 AM,72.7,44.1,36,30.21,10.0,Calm,Calm,-,N/A,,Clear,0,2013-08-16 15:34:00
9:54 AM,75.4,43.5,32,30.21,10.0,Calm,Calm,-,N/A,,Clear,0,2013-08-16 15:54:00
10:14 AM,77.0,43.5,30,30.21,10.0,Calm,Calm,-,N/A,,Clear,0,2013-08-16 16:14:00
10:34 AM,78.6,43.9,29,30.21,10.0,SSE,3.5,-,N/A,,Clear,150,2013-08-16 16:34:00
10:54 AM,80.2,43.9,28,30.21,10.0,ESE,3.5,-,N/A,,Clear,120,2013-08-16 16:54:00
11:14 AM,81.5,43.5,26,30.21,10.0,ESE,4.6,-,N/A,,Clear,120,2013-08-16 17:14:00
11:34 AM,83.3,44.2,25,30.20,10.0,ESE,5.8,-,N/A,,Clear,120,2013-08-16 17:34:00
11:54 AM,84.4,43.3,24,30.20,10.0,Calm,Calm,-,N/A,,Clear,0,2013-08-16 17:54:00
12:14 PM,85.5,43.3,23,30.19,10.0,East,5.8,-,N/A,,Clear,100,2013-08-16 18:14:00
12:34 PM,86.2,44.2,23,30.19,10.0,Calm,Calm,-,N/A,,Clear,0,2013-08-16 18:34:00
12:54 PM,87.4,43.3,21,30.19,7.0,NNE,3.5,-,N/A,,Clear,20,2013-08-16 18:54:00
1:14 PM,88.0,40.3,19,30.18,7.0,East,8.1,-,N/A,,Clear,80,2013-08-16 19:14:00
1:34 PM,89.2,33.3,14,30.17,10.0,ENE,4.6,-,N/A,,Clear,70,2013-08-16 19:34:00
1:54 PM,89.8,27.1,10,30.17,5.0,East,5.8,-,N/A,,Haze,80,2013-08-16 19:54:00
2:14 PM,90.9,30.7,12,30.17,10.0,East,3.5,-,N/A,,Clear,100,2013-08-16 20:14:00
2:34 PM,89.6,30.0,12,30.17,10.0,East,3.5,-,N/A,,Clear,80,2013-08-16 20:34:00
2:54 PM,90.5,30.7,12,30.16,10.0,Calm,Calm,-,N/A,,Clear,0,2013-08-16 20:54:00
3:14 PM,89.6,30.0,12,30.15,10.0,East,4.6,-,N/A,,Clear,80,2013-08-16 21:14:00
3:34 PM,90.9,30.9,12,30.14,10.0,Calm,Calm,-,N/A,,Clear,0,2013-08-16 21:34:00
3:54 PM,91.9,31.8,12,30.14,10.0,East,4.6,-,N/A,,Clear,80,2013-08-16 21:54:00
4:14 PM,90.7,32.0,12,30.14,10.0,ENE,4.6,-,N/A,,Clear,60,2013-08-16 22:14:00
4:34 PM,92.1,32.0,12,30.14,10.0,East,8.1,-,N/A,,Clear,100,2013-08-16 22:34:00
4:54 PM,91.0,32.9,13,30.13,10.0,ESE,5.8,-,N/A,,Clear,120,2013-08-16 22:54:00
5:14 PM,91.4,32.5,12,30.13,10.0,East,6.9,-,N/A,,Clear,80,2013-08-16 23:14:00
5:34 PM,90.5,32.9,13,30.14,10.0,East,6.9,-,N/A,,Clear,90,2013-08-16 23:34:00
5:54 PM,89.6,34.2,14,30.13,10.0,East,5.8,9.2,N/A,,Clear,90,2013-08-16 23:54:00
6:14 PM,88.9,33.4,14,30.13,10.0,East,8.1,-,N/A,,Clear,100,2013-08-17 00:14:00
6:34 PM,86.4,33.3,15,30.14,10.0,East,5.8,-,N/A,,Clear,90,2013-08-17 00:34:00
6:54 PM,85.1,36.7,18,30.14,10.0,ESE,3.5,-,N/A,,Clear,110,2013-08-17 00:54:00
7:14 PM,83.8,39.0,20,30.15,10.0,East,8.1,-,N/A,,Clear,90,2013-08-17 01:14:00
7:34 PM,81.9,41.5,24,30.15,10.0,East,6.9,-,N/A,,Clear,90,2013-08-17 01:34:00
7:54 PM,79.9,43.0,27,30.16,10.0,ESE,3.5,-,N/A,,Clear,110,2013-08-17 01:54:00
8:14 PM,78.1,43.0,29,30.17,10.0,Calm,Calm,-,N/A,,Clear,0,2013-08-17 02:14:00
8:34 PM,77.9,42.4,28,30.17,10.0,SE,8.1,-,N/A,,Scattered Clouds,130,2013-08-17 02:34:00
8:54 PM,77.0,42.4,29,30.18,10.0,SE,6.9,-,N/A,,Clear,130,2013-08-17 02:54:00
9:14 PM,77.0,43.2,30,30.18,10.0,ESE,5.8,-,N/A,,Clear,120,2013-08-17 03:14:00
9:34 PM,72.5,43.9,36,30.20,10.0,WNW,5.8,-,N/A,,Clear,290,2013-08-17 03:34:00
9:54 PM,74.3,45.1,35,30.20,10.0,Calm,Calm,-,N/A,,Clear,0,2013-08-17 03:54:00
10:14 PM,72.1,45.9,39,30.20,10.0,Calm,Calm,-,N/A,,Clear,0,2013-08-17 04:14:00
10:34 PM,68.9,46.9,45,30.21,10.0,Calm,Calm,-,N/A,,Clear,0,2013-08-17 04:34:00
10:54 PM,67.8,46.6,46,30.20,10.0,Calm,Calm,-,N/A,,Clear,0,2013-08-17 04:54:00
11:14 PM,65.5,47.5,52,30.20,10.0,Calm,Calm,-,N/A,,Clear,0,2013-08-17 05:14:00
11:34 PM,63.5,46.2,53,30.20,10.0,Calm,Calm,-,N/A,,Clear,0,2013-08-17 05:34:00
11:54 PM,64.0,47.5,55,30.20,10.0,Calm,Calm,-,N/A,,Clear,0,2013-08-17 05:54:00